Wind_Speed
13 15 17 18 20 22 25 27 30 30 31 32 36 37 38 38 39 39 40 40 40 40 40 39 38 36 34 33 32 32 30 29 29 28 26 25 22 19 18 15 15 17 20 22
15 17 19 20 22 22 23 26 29 31 33 36 39 40 40 39 40 41 41 41 41 41 40 39 39 37 34 32 31 29 28 26 26 24 22 18 15 13 10 6 6 9 11 14
19 20 21 23 25 28 28 28 31 34 37 39 40 40 39 38 40 41 41 40 40 40 40 40 39 37 34 31 29 27 25 24 23 21 19 15 12 9 6 4 3 3 6 9
25 26 27 24 31 34 34 34 36 38 39 40 40 41 39 39 42 43 41 41 40 39 39 40 40 38 33 30 28 26 23 22 21 19 17 15 13 11 8 7 6 6 7 10
28 30 30 30 37 39 39 41 45 44 45 45 45 45 42 42 43 42 43 42 41 40 39 39 39 38 33 29 27 25 22 21 19 17 16 15 13 12 11 10 9 9 10 11
32 34 36 39 42 44 46 48 50 49 51 51 50 50 47 46 45 44 44 43 42 41 39 38 37 36 33 28 26 25 22 20 18 16 15 14 13 12 11 11 10 10 10 10
39 40 42 46 47 48 50 51 52 52 53 53 51 51 51 49 48 47 46 44 43 41 39 37 36 34 32 28 26 24 21 19 17 16 14 13 12 12 12 11 10 9 8 6
40 43 46 47 49 50 52 54 55 55 57 57 56 55 54 53 50 48 47 45 43 41 39 37 35 33 30 27 26 24 22 19 18 16 14 13 12 12 11 10 9 8 7 5
43 46 48 49 51 53 54 56 57 59 60 60 60 60 59 58 55 52 50 47 44 42 39 36 34 33 30 28 27 26 24 21 19 17 15 14 13 12 11 10 9 8 7 5
45 48 49 51 53 54 57 59 62 64 65 66 66 65 63 61 59 58 54 49 44 42 40 37 35 33 31 29 29 28 27 25 22 19 18 16 14 13 12 11 10 8 7 6
46 48 50 53 55 58 61 63 66 67 69 70 70 68 66 63 61 59 55 50 46 44 43 40 37 35 32 30 29 31 30 28 25 22 20 18 17 15 13 12 10 9 8 7
48 51 55 58 61 64 67 69 70 72 73 73 73 72 70 69 67 65 59 53 48 45 43 43 40 36 33 31 30 32 33 31 28 25 23 21 20 18 15 14 13 12 11 10
52 56 61 64 67 69 72 73 74 75 76 75 72 70 68 68 67 66 63 57 52 47 45 44 42 40 36 33 31 32 33 34 31 28 26 24 22 21 19 17 16 15 14 13
59 63 66 69 71 72 73 73 73 71 69 66 64 62 59 57 56 57 57 56 52 48 45 43 42 41 40 37 33 32 33 35 35 31 29 27 25 23 21 20 19 18 17 17
65 68 70 72 72 72 69 66 63 59 57 53 48 46 45 44 44 43 44 45 47 47 46 44 42 41 41 39 35 34 34 34 36 35 32 29 27 25 23 22 20 19 18 18
68 70 71 72 70 65 59 55 52 50 47 44 42 41 40 39 39 36 35 36 38 41 43 45 43 42 41 40 38 36 35 33 34 37 36 33 31 28 26 24 23 21 19 19
71 72 72 69 62 56 51 47 45 44 43 43 43 42 40 39 37 35 34 33 34 36 40 43 44 42 41 40 38 36 36 34 34 36 37 36 34 31 29 26 25 23 21 20
70 69 65 60 54 48 43 42 43 43 44 44 43 42 40 38 36 35 33 31 31 31 35 41 42 40 40 39 37 36 35 34 32 34 35 35 35 33 31 29 27 25 22 21
66 61 56 50 46 42 41 43 45 45 45 46 45 44 43 41 39 36 32 29 28 27 32 39 42 40 38 38 37 37 37 33 31 32 33 33 33 32 31 29 28 26 23 20
59 53 48 44 40 40 42 44 45 47 48 48 48 46 44 41 38 35 32 29 27 26 30 37 40 38 37 37 36 37 37 34 30 29 30 30 30 30 29 28 26 24 21 19
52 46 42 39 38 39 41 43 45 48 49 49 48 46 43 40 36 33 30 27 25 25 28 35 38 36 36 36 35 36 35 33 29 27 26 26 27 27 26 24 23 21 19 18
45 41 39 37 37 38 40 42 45 48 50 50 48 45 42 38 33 30 27 25 23 24 27 33 34 35 35 34 34 36 35 31 28 26 24 24 25 24 23 22 20 18 17 15
40 38 36 35 36 37 39 41 44 47 49 49 48 44 40 35 30 26 23 21 21 23 27 31 32 33 34 34 34 36 35 32 28 26 25 24 23 22 21 19 18 16 14 12
37 34 33 33 33 36 39 40 42 45 46 46 46 43 39 33 27 22 16 15 17 21 27 30 31 32 32 32 34 35 35 32 29 27 26 25 23 21 19 18 16 14 12 11
34 31 30 31 33 35 38 39 41 43 43 43 43 41 37 31 23 15 8 10 15 22 27 29 29 30 29 29 32 34 34 33 29 28 27 25 24 22 20 17 15 13 11 11
32 29 28 30 32 35 37 38 40 42 42 41 41 39 36 30 21 11 1 8 16 22 25 27 27 27 26 27 30 33 34 33 30 28 27 26 24 22 20 18 15 14 12 11
29 27 26 27 29 32 35 37 38 39 39 39 39 37 34 29 20 10 7 13 19 23 23 24 24 24 23 25 29 33 33 32 30 28 27 26 24 22 20 18 16 15 14 13
Wind_Direction
308 304 300 299 297 293 292 294 295 298 298 298 296 299 302 304 306 306 306 308 310 311 311 310 307 300 291 287 287 289 291 294 298 301 304 308 310 308 303 286 263 249 234 229
316 313 312 310 305 302 303 304 302 301 302 301 303 304 305 307 306 304 305 307 308 310 311 311 310 305 295 290 287 288 289 292 297 298 302 307 309 313 316 308 264 239 222 221
315 313 313 312 306 307 310 307 302 302 304 306 306 306 306 305 302 302 304 306 306 308 310 311 312 309 299 291 286 286 287 289 292 293 295 296 300 307 314 323 310 244 227 228
312 312 315 310 301 302 306 307 304 305 306 305 305 305 305 303 302 303 304 305 305 306 308 309 310 310 301 289 283 282 282 283 286 287 287 286 289 294 296 296 290 270 254 249
311 311 310 301 298 304 311 310 308 308 305 304 304 303 302 299 299 300 300 301 302 302 303 305 307 307 302 289 280 279 277 275 278 280 280 280 280 284 285 284 278 272 265 260
310 309 310 304 304 310 311 309 308 307 305 304 304 301 300 297 296 294 294 295 296 297 297 299 301 302 300 288 277 273 271 268 268 271 273 274 274 276 276 276 274 268 265 264
309 308 306 304 308 308 307 305 302 302 302 301 300 298 297 296 294 291 291 291 291 291 291 292 294 296 296 284 272 268 265 260 258 261 265 267 270 271 269 269 268 267 266 254
306 304 303 305 304 303 302 301 301 300 299 298 297 296 294 293 291 289 288 287 287 286 286 285 287 290 290 279 266 262 257 253 251 252 257 260 264 264 261 259 260 260 258 247
307 303 302 302 302 302 302 301 301 299 297 296 293 292 291 292 290 287 285 283 281 280 280 276 279 283 284 274 259 256 252 247 245 247 251 254 256 256 252 250 252 252 250 248
304 304 305 304 304 304 303 302 300 298 295 293 291 289 287 285 284 282 281 278 276 274 273 269 270 273 275 270 255 248 248 244 243 244 246 249 250 250 247 246 245 244 246 246
304 305 305 306 305 305 303 301 298 296 294 292 289 286 283 279 277 277 277 276 273 268 266 265 263 265 267 264 253 244 243 242 241 242 242 243 245 245 244 244 244 246 250 257
308 308 308 308 307 306 303 301 298 295 293 291 290 287 284 281 279 277 277 275 272 267 264 261 260 260 258 258 251 242 238 238 239 240 240 241 242 242 243 245 246 250 254 259
310 310 310 310 308 306 303 300 298 296 295 295 294 293 291 287 284 281 278 275 271 266 262 258 255 253 252 251 248 242 237 235 235 237 238 240 241 241 242 244 248 251 255 259
313 313 312 312 310 307 304 301 301 301 303 304 303 302 300 297 292 285 279 275 270 263 258 253 249 248 247 247 246 242 238 234 232 233 235 237 238 240 242 245 250 254 257 260
317 315 313 312 310 307 306 306 308 310 311 311 309 306 304 301 298 292 284 276 270 264 256 250 245 244 244 243 239 238 237 235 231 229 231 234 236 239 241 245 249 254 259 261
317 315 313 312 312 312 313 315 315 315 315 315 313 311 309 306 303 298 292 281 270 261 252 245 242 240 240 240 235 230 233 234 232 229 228 230 234 237 240 245 249 252 256 260
318 316 315 315 316 317 319 320 321 321 318 316 313 311 309 307 304 301 296 287 273 260 247 240 237 236 237 237 233 225 225 230 231 230 229 229 231 235 239 244 248 252 254 258
317 315 315 316 318 320 322 324 324 322 321 319 316 312 308 305 302 299 296 291 277 260 242 232 229 231 233 234 229 222 221 227 231 232 230 229 229 232 236 240 246 251 254 254
317 316 316 318 320 322 324 325 324 323 322 320 317 313 308 305 300 296 292 290 281 262 239 227 223 224 228 230 225 220 218 224 231 232 230 229 228 230 232 237 244 250 249 248
318 318 318 319 321 323 325 326 326 325 324 322 319 315 310 305 300 294 286 282 276 262 237 222 218 220 223 225 222 217 215 220 226 229 228 226 223 224 228 235 241 243 244 243
319 320 320 321 323 326 327 328 328 327 327 325 322 319 315 309 301 294 285 276 267 254 231 215 212 214 217 218 217 213 213 216 220 225 223 219 218 220 225 229 232 236 238 238
321 322 322 323 325 328 330 330 330 330 329 328 326 322 319 314 304 294 283 271 256 242 221 207 205 208 211 212 211 209 208 210 213 216 215 212 211 214 219 223 226 229 232 234
323 323 324 325 328 331 333 333 333 334 333 332 331 329 326 322 311 298 282 263 245 226 207 197 198 202 204 205 205 203 204 206 208 209 205 203 205 208 211 214 217 220 224 232
323 324 325 327 330 332 335 336 337 338 339 338 338 336 335 333 322 306 284 252 229 208 194 189 192 196 199 201 200 199 200 200 203 203 199 198 199 200 202 205 209 215 222 229
325 325 327 330 332 334 337 338 341 343 343 344 346 344 344 344 338 326 285 228 202 189 181 181 185 189 193 196 196 196 197 198 200 199 197 197 196 196 198 203 209 216 223 228
327 328 330 333 336 337 340 343 345 347 348 349 351 351 354 355 353 351 349 174 171 169 169 173 178 184 190 194 193 193 195 197 197 198 197 196 196 198 201 206 212 218 226 232
328 328 331 335 338 341 343 348 352 354 354 354 354 357 360 6 12 32 103 141 152 153 156 162 170 180 187 190 191 190 191 194 195 196 196 197 199 202 206 210 216 224 232 239
Height
5843 5841 5839 5837 5835 5832 5829 5825 5821 5818 5814 5810 5803 5798 5794 5790 5785 5780 5775 5770 5764 5758 5753 5748 5743 5738 5735 5733 5731 5729 5726 5724 5720 5717 5713 5708 5703 5699 5694 5692 5691 5693 5695 5699
5840 5837 5834 5832 5829 5826 5823 5819 5814 5810 5806 5801 5796 5791 5786 5782 5777 5772 5767 5762 5757 5751 5746 5741 5736 5732 5728 5726 5724 5722 5719 5717 5714 5711 5708 5704 5701 5697 5694 5692 5691 5691 5693 5696
5836 5833 5830 5826 5822 5819 5816 5812 5807 5802 5799 5793 5788 5783 5779 5774 5768 5763 5759 5754 5749 5744 5738 5733 5729 5725 5721 5719 5717 5715 5713 5711 5709 5707 5704 5702 5699 5696 5694 5692 5691 5692 5693 5695
5830 5827 5824 5823 5815 5812 5808 5804 5799 5794 5790 5784 5779 5774 5770 5764 5758 5753 5749 5745 5740 5735 5730 5725 5721 5717 5714 5712 5711 5709 5707 5705 5704 5702 5701 5699 5697 5695 5694 5693 5692 5692 5693 5694
5824 5820 5818 5814 5806 5803 5800 5794 5787 5784 5778 5772 5767 5763 5760 5754 5748 5743 5739 5734 5730 5726 5722 5718 5713 5709 5706 5705 5704 5703 5701 5700 5699 5697 5697 5696 5695 5693 5692 5691 5690 5690 5691 5692
5816 5812 5808 5803 5798 5793 5790 5784 5776 5771 5765 5760 5754 5750 5747 5742 5737 5732 5727 5723 5720 5716 5713 5709 5705 5702 5699 5698 5697 5697 5695 5694 5693 5693 5692 5692 5691 5690 5690 5689 5688 5688 5688 5689
5807 5803 5799 5791 5788 5785 5780 5773 5766 5759 5753 5747 5741 5736 5732 5727 5723 5719 5715 5711 5708 5705 5702 5700 5696 5693 5691 5690 5690 5690 5690 5689 5688 5688 5688 5688 5687 5687 5686 5686 5686 5685 5685 5686
5801 5796 5792 5786 5779 5773 5767 5759 5752 5746 5739 5732 5726 5720 5715 5711 5708 5704 5701 5698 5695 5693 5691 5688 5686 5684 5683 5682 5683 5684 5683 5683 5683 5682 5683 5683 5683 5683 5683 5683 5683 5682 5683 5684
5791 5786 5779 5773 5766 5759 5751 5744 5737 5730 5722 5715 5708 5703 5698 5693 5690 5687 5684 5683 5681 5679 5678 5675 5674 5674 5673 5673 5675 5676 5676 5677 5677 5677 5677 5678 5679 5679 5679 5680 5680 5680 5681 5682
5780 5772 5766 5759 5752 5745 5737 5729 5720 5711 5703 5695 5688 5682 5677 5673 5671 5668 5666 5665 5665 5664 5663 5662 5660 5661 5661 5662 5665 5667 5669 5670 5670 5671 5672 5673 5674 5675 5676 5676 5677 5678 5678 5679
5770 5763 5755 5746 5738 5730 5721 5711 5701 5692 5682 5673 5665 5659 5654 5651 5648 5646 5646 5646 5647 5648 5648 5646 5644 5645 5649 5650 5653 5657 5659 5661 5663 5665 5666 5667 5668 5670 5671 5673 5674 5675 5676 5676
5757 5749 5741 5733 5723 5712 5702 5692 5681 5671 5661 5652 5641 5634 5630 5627 5625 5624 5624 5625 5627 5630 5631 5632 5632 5633 5636 5639 5642 5645 5649 5652 5655 5657 5659 5661 5662 5664 5666 5668 5669 5670 5672 5673
5744 5735 5725 5715 5705 5693 5681 5669 5658 5647 5636 5626 5618 5611 5605 5602 5601 5600 5601 5603 5606 5610 5613 5616 5618 5620 5622 5625 5629 5633 5638 5642 5646 5649 5652 5654 5656 5658 5660 5663 5664 5666 5668 5669
5729 5719 5709 5697 5685 5672 5658 5646 5635 5625 5615 5605 5596 5590 5584 5580 5578 5577 5578 5579 5583 5589 5594 5598 5602 5606 5608 5611 5616 5621 5626 5630 5635 5640 5643 5646 5649 5651 5654 5657 5659 5660 5662 5664
5712 5700 5688 5676 5663 5651 5638 5627 5616 5607 5598 5590 5582 5575 5569 5564 5560 5558 5557 5558 5561 5567 5574 5580 5586 5590 5593 5597 5602 5609 5614 5619 5624 5630 5635 5638 5642 5645 5648 5650 5653 5655 5657 5658
5695 5682 5669 5656 5644 5632 5622 5611 5602 5593 5585 5577 5570 5564 5558 5552 5548 5545 5542 5541 5542 5548 5555 5562 5569 5575 5579 5584 5589 5596 5602 5608 5613 5619 5625 5629 5633 5637 5641 5644 5646 5649 5651 5652
5676 5663 5650 5638 5628 5618 5609 5599 5590 5582 5574 5567 5560 5553 5547 5542 5537 5533 5530 5528 5527 5531 5537 5545 5552 5559 5565 5570 5577 5583 5590 5597 5603 5608 5614 5620 5625 5629 5633 5636 5639 5642 5645 5646
5658 5645 5633 5622 5613 5605 5598 5590 5582 5574 5565 5557 5549 5542 5536 5531 5526 5522 5519 5516 5515 5516 5521 5528 5537 5544 5551 5558 5566 5572 5579 5586 5593 5598 5604 5610 5616 5621 5625 5629 5632 5635 5638 5640
5644 5632 5622 5613 5604 5597 5589 5581 5573 5565 5556 5547 5539 5531 5525 5519 5514 5511 5508 5505 5503 5504 5508 5514 5523 5532 5540 5548 5555 5563 5571 5578 5584 5590 5595 5601 5607 5612 5617 5622 5625 5628 5631 5633
5631 5621 5612 5604 5597 5589 5581 5573 5564 5555 5546 5536 5527 5519 5512 5506 5501 5497 5494 5493 5492 5493 5496 5502 5511 5521 5530 5538 5546 5554 5563 5570 5577 5582 5587 5593 5599 5605 5610 5615 5618 5620 5623 5627
5620 5611 5603 5596 5589 5582 5574 5565 5556 5546 5536 5526 5516 5507 5499 5493 5487 5483 5481 5481 5482 5482 5486 5493 5502 5512 5521 5530 5538 5547 5556 5564 5570 5575 5581 5587 5593 5598 5603 5608 5611 5614 5617 5620
5610 5602 5595 5588 5582 5575 5567 5558 5548 5538 5527 5516 5506 5495 5487 5480 5474 5470 5468 5468 5470 5473 5477 5485 5494 5504 5514 5524 5532 5541 5550 5558 5564 5570 5576 5582 5588 5593 5598 5602 5606 5609 5612 5614
5602 5595 5588 5582 5575 5569 5561 5552 5542 5532 5520 5508 5496 5486 5476 5469 5462 5458 5457 5458 5460 5464 5471 5479 5489 5499 5509 5518 5527 5535 5544 5552 5560 5566 5572 5578 5583 5588 5593 5598 5601 5604 5607 5609
5595 5589 5583 5577 5570 5564 5556 5547 5538 5527 5515 5503 5491 5479 5469 5460 5454 5449 5448 5450 5453 5459 5467 5476 5485 5495 5505 5514 5523 5532 5540 5548 5555 5562 5569 5574 5580 5585 5589 5594 5597 5601 5603 5605
5589 5584 5578 5572 5566 5559 5552 5543 5534 5524 5512 5501 5489 5476 5465 5456 5449 5445 5444 5446 5450 5457 5466 5475 5484 5494 5503 5511 5520 5528 5537 5545 5552 5559 5566 5571 5577 5582 5586 5590 5594 5597 5600 5602
5584 5579 5573 5568 5561 5555 5548 5540 5531 5521 5510 5499 5489 5477 5466 5456 5449 5445 5445 5448 5452 5459 5468 5477 5486 5495 5503 5510 5518 5526 5535 5542 5549 5556 5563 5568 5574 5579 5583 5587 5591 5594 5597 5599
5580 5575 5571 5566 5561 5554 5546 5538 5529 5520 5510 5500 5490 5480 5470 5461 5454 5451 5451 5453 5459 5465 5473 5481 5489 5497 5503 5510 5517 5524 5532 5540 5547 5554 5560 5566 5571 5576 5580 5584 5587 5591 5593 5595